Location: Kawakawa
(35.3830°S, 174.0670°E)
Time: 16:31:34
(UTC+13:00)

H-2A R/B - Pass Details

Date: 24 January 2019
Orbit: 269 x 30694 km, 28.2° (Epoch: 16 February)

Event Time Altitude Azimuth Distance (km) Brightness Sun altitude
Rises 20:02:31 0° 262° (W) 20,704 11.9 5.8°
Reaches altitude 10° 20:39:36 10° 263° (W) 11,295 10.0 -1.2°
Maximum altitude 21:04:36 39° 322° (NW) 2,198 5.0 -5.7°
Drops below altitude 10° 21:09:18 10° 32° (NNE) 2,269 4.4 -6.6°
Enters shadow 21:09:54 - 37° (NE) 2,460 4.6 -6.7°
